Year,Month,Day,Hour,Minute,Value (Times are PST for temperature in C)
2010,06,26,00,00,9.90
2010,06,26,00,01,9.90
2010,06,26,00,02,9.90
2010,06,26,00,03,9.90
2010,06,26,00,04,9.90
2010,06,26,00,05,9.90
2010,06,26,00,06,9.80
2010,06,26,00,07,9.80
2010,06,26,00,08,9.80
2010,06,26,00,09,9.80
2010,06,26,00,10,9.80
2010,06,26,00,11,9.80
2010,06,26,00,12,9.80
2010,06,26,00,13,9.70
2010,06,26,00,14,9.70
2010,06,26,00,15,9.70
2010,06,26,00,16,9.70
2010,06,26,00,17,9.70
2010,06,26,00,18,9.70
2010,06,26,00,19,9.70
2010,06,26,00,20,9.70
2010,06,26,00,21,9.60
2010,06,26,00,22,9.60
2010,06,26,00,23,9.60
2010,06,26,00,24,9.60
2010,06,26,00,25,9.60
2010,06,26,00,26,9.60
2010,06,26,00,27,9.60
2010,06,26,00,28,9.60
2010,06,26,00,29,9.60
2010,06,26,00,30,9.50
2010,06,26,00,31,9.50
2010,06,26,00,32,9.50
2010,06,26,00,33,9.50
2010,06,26,00,34,9.50
2010,06,26,00,35,9.40
2010,06,26,00,36,9.40
2010,06,26,00,37,9.40
2010,06,26,00,38,9.40
2010,06,26,00,39,9.40
2010,06,26,00,40,9.40
2010,06,26,00,41,9.40
2010,06,26,00,42,9.40
2010,06,26,00,43,9.40
2010,06,26,00,44,9.40
2010,06,26,00,45,9.30
2010,06,26,00,46,9.30
2010,06,26,00,47,9.30
2010,06,26,00,48,9.30
2010,06,26,00,49,9.30
2010,06,26,00,50,9.30
2010,06,26,00,51,9.30
2010,06,26,00,52,9.30
2010,06,26,00,53,9.30
2010,06,26,00,54,9.30
2010,06,26,00,55,9.30
2010,06,26,00,56,9.30
2010,06,26,00,57,9.30
2010,06,26,00,58,9.30
2010,06,26,00,59,9.40
2010,06,26,01,00,9.30
2010,06,26,01,01,9.30
2010,06,26,01,02,9.30
2010,06,26,01,03,9.30
2010,06,26,01,04,9.30
2010,06,26,01,05,9.30
2010,06,26,01,06,9.30
2010,06,26,01,07,9.30
2010,06,26,01,08,9.20
2010,06,26,01,09,9.20
2010,06,26,01,10,9.20
2010,06,26,01,11,9.20
2010,06,26,01,12,9.20
2010,06,26,01,13,9.20
2010,06,26,01,14,9.20
2010,06,26,01,15,9.10
2010,06,26,01,16,9.10
2010,06,26,01,17,9.10
2010,06,26,01,18,9.10
2010,06,26,01,19,9.10
2010,06,26,01,20,9.10
2010,06,26,01,21,9.10
2010,06,26,01,22,9.00
2010,06,26,01,23,9.00
2010,06,26,01,24,9.00
2010,06,26,01,25,9.00
2010,06,26,01,26,9.00
2010,06,26,01,27,9.00
2010,06,26,01,28,9.00
2010,06,26,01,29,9.00
2010,06,26,01,30,9.00
2010,06,26,01,31,8.90
2010,06,26,01,32,8.90
2010,06,26,01,33,8.90
2010,06,26,01,34,8.90
2010,06,26,01,35,8.90
2010,06,26,01,36,8.90
2010,06,26,01,37,8.90
2010,06,26,01,38,8.90
2010,06,26,01,39,8.80
2010,06,26,01,40,8.80
2010,06,26,01,41,8.80
2010,06,26,01,42,8.80
2010,06,26,01,43,8.80
2010,06,26,01,44,8.80
2010,06,26,01,45,8.80
2010,06,26,01,46,8.80
2010,06,26,01,47,8.80
2010,06,26,01,48,8.80
2010,06,26,01,49,8.70
2010,06,26,01,50,8.70
2010,06,26,01,51,8.70
2010,06,26,01,52,8.70
2010,06,26,01,53,8.70
2010,06,26,01,54,8.70
2010,06,26,01,55,8.70
2010,06,26,01,56,8.70
2010,06,26,01,57,8.70
2010,06,26,01,58,8.70
2010,06,26,01,59,8.60
2010,06,26,02,00,8.60
2010,06,26,02,01,8.60
2010,06,26,02,02,8.60
2010,06,26,02,03,8.60
2010,06,26,02,04,8.60
2010,06,26,02,05,8.60
2010,06,26,02,06,8.60
2010,06,26,02,07,8.60
2010,06,26,02,08,8.60
2010,06,26,02,09,8.50
2010,06,26,02,10,8.50
2010,06,26,02,11,8.50
2010,06,26,02,12,8.50
2010,06,26,02,13,8.50
2010,06,26,02,14,8.50
2010,06,26,02,15,8.50
2010,06,26,02,16,8.40
2010,06,26,02,17,8.40
2010,06,26,02,18,8.40
2010,06,26,02,19,8.40
2010,06,26,02,20,8.40
2010,06,26,02,21,8.40
2010,06,26,02,22,8.30
2010,06,26,02,23,8.30
2010,06,26,02,24,8.30
2010,06,26,02,25,8.30
2010,06,26,02,26,8.30
2010,06,26,02,27,8.30
2010,06,26,02,28,8.30
2010,06,26,02,29,8.20
2010,06,26,02,30,8.20
2010,06,26,02,31,8.20
2010,06,26,02,32,8.20
2010,06,26,02,33,8.20
2010,06,26,02,34,8.20
2010,06,26,02,35,8.20
2010,06,26,02,36,8.20
2010,06,26,02,37,8.10
2010,06,26,02,38,8.10
2010,06,26,02,39,8.10
2010,06,26,02,40,8.10
2010,06,26,02,41,8.10
2010,06,26,02,42,8.10
2010,06,26,02,43,8.10
2010,06,26,02,44,8.10
2010,06,26,02,45,8.10
2010,06,26,02,46,8.00
2010,06,26,02,47,8.00
2010,06,26,02,48,8.00
2010,06,26,02,49,8.00
2010,06,26,02,50,7.90
2010,06,26,02,51,7.90
2010,06,26,02,52,7.90
2010,06,26,02,53,7.90
2010,06,26,02,54,7.90
2010,06,26,02,55,7.90
2010,06,26,02,56,7.90
2010,06,26,02,57,7.90
2010,06,26,02,58,7.90
2010,06,26,02,59,7.90
2010,06,26,03,00,7.90
2010,06,26,03,01,7.90
2010,06,26,03,02,7.90
2010,06,26,03,03,7.90
2010,06,26,03,04,7.90
2010,06,26,03,05,7.90
2010,06,26,03,06,7.80
2010,06,26,03,07,7.80
2010,06,26,03,08,7.80
2010,06,26,03,09,7.80
2010,06,26,03,10,7.80
2010,06,26,03,11,7.80
2010,06,26,03,12,7.80
2010,06,26,03,13,7.80
2010,06,26,03,14,7.80
2010,06,26,03,15,7.80
2010,06,26,03,16,7.80
2010,06,26,03,17,7.80
2010,06,26,03,18,7.80
2010,06,26,03,19,7.80
2010,06,26,03,20,7.80
2010,06,26,03,21,7.80
2010,06,26,03,22,7.70
2010,06,26,03,23,7.70
2010,06,26,03,24,7.70
2010,06,26,03,25,7.70
2010,06,26,03,26,7.70
2010,06,26,03,27,7.70
2010,06,26,03,28,7.70
2010,06,26,03,29,7.70
2010,06,26,03,30,7.60
2010,06,26,03,31,7.60
2010,06,26,03,32,7.60
2010,06,26,03,33,7.60
2010,06,26,03,34,7.60
2010,06,26,03,35,7.60
2010,06,26,03,36,7.60
2010,06,26,03,37,7.60
2010,06,26,03,38,7.60
2010,06,26,03,39,7.60
2010,06,26,03,40,7.60
2010,06,26,03,41,7.50
2010,06,26,03,42,7.50
2010,06,26,03,43,7.50
2010,06,26,03,44,7.50
2010,06,26,03,45,7.50
2010,06,26,03,46,7.60
2010,06,26,03,47,7.60
2010,06,26,03,48,7.60
2010,06,26,03,49,7.60
2010,06,26,03,50,7.60
2010,06,26,03,51,7.60
2010,06,26,03,52,7.60
2010,06,26,03,53,7.60
2010,06,26,03,54,7.60
2010,06,26,03,55,7.60
2010,06,26,03,56,7.60
2010,06,26,03,57,7.60
2010,06,26,03,58,7.60
2010,06,26,03,59,7.50
2010,06,26,04,00,7.50
2010,06,26,04,01,7.50
2010,06,26,04,02,7.50
2010,06,26,04,03,7.50
2010,06,26,04,04,7.50
2010,06,26,04,05,7.50
2010,06,26,04,06,7.50
2010,06,26,04,07,7.50
2010,06,26,04,08,7.40
2010,06,26,04,09,7.40
2010,06,26,04,10,7.40
2010,06,26,04,11,7.40
2010,06,26,04,12,7.40
2010,06,26,04,13,7.40
2010,06,26,04,14,7.40
2010,06,26,04,15,7.40
2010,06,26,04,16,7.40
2010,06,26,04,17,7.40
2010,06,26,04,18,7.40
2010,06,26,04,19,7.30
2010,06,26,04,20,7.30
2010,06,26,04,21,7.30
2010,06,26,04,22,7.30
2010,06,26,04,23,7.30
2010,06,26,04,24,7.30
2010,06,26,04,25,7.30
2010,06,26,04,26,7.30
2010,06,26,04,27,7.30
2010,06,26,04,28,7.30
2010,06,26,04,29,7.20
2010,06,26,04,30,7.20
2010,06,26,04,31,7.20
2010,06,26,04,32,7.20
2010,06,26,04,33,7.20
2010,06,26,04,34,7.20
2010,06,26,04,35,7.20
2010,06,26,04,36,7.20
2010,06,26,04,37,7.20
2010,06,26,04,38,7.20
2010,06,26,04,39,7.20
2010,06,26,04,40,7.20
2010,06,26,04,41,7.20
2010,06,26,04,42,7.20
2010,06,26,04,43,7.20
2010,06,26,04,44,7.20
2010,06,26,04,45,7.20
2010,06,26,04,46,7.20
2010,06,26,04,47,7.20
2010,06,26,04,48,7.20
2010,06,26,04,49,7.20
2010,06,26,04,50,7.20
2010,06,26,04,51,7.20
2010,06,26,04,52,7.20
2010,06,26,04,53,7.20
2010,06,26,04,54,7.20
2010,06,26,04,55,7.20
2010,06,26,04,56,7.20
2010,06,26,04,57,7.20
2010,06,26,04,58,7.20
2010,06,26,04,59,7.20
2010,06,26,05,00,7.20
2010,06,26,05,01,7.20
2010,06,26,05,02,7.20
2010,06,26,05,03,7.20
2010,06,26,05,04,7.20
2010,06,26,05,05,7.20
2010,06,26,05,06,7.20
2010,06,26,05,07,7.20
2010,06,26,05,08,7.20
2010,06,26,05,09,7.20
2010,06,26,05,10,7.20
2010,06,26,05,11,7.20
2010,06,26,05,12,7.20
2010,06,26,05,13,7.20
2010,06,26,05,14,7.20
2010,06,26,05,15,7.20
2010,06,26,05,16,7.20
2010,06,26,05,17,7.20
2010,06,26,05,18,7.20
2010,06,26,05,19,7.20
2010,06,26,05,20,7.20
2010,06,26,05,21,7.30
2010,06,26,05,22,7.30
2010,06,26,05,23,7.30
2010,06,26,05,24,7.30
2010,06,26,05,25,7.30
2010,06,26,05,26,7.30
2010,06,26,05,27,7.30
2010,06,26,05,28,7.20
2010,06,26,05,29,7.20
2010,06,26,05,30,7.20
2010,06,26,05,31,7.20
2010,06,26,05,32,7.20
2010,06,26,05,33,7.20
2010,06,26,05,34,7.20
2010,06,26,05,35,7.20
2010,06,26,05,36,7.20
2010,06,26,05,37,7.20
2010,06,26,05,38,7.20
2010,06,26,05,39,7.20
2010,06,26,05,40,7.20
2010,06,26,05,41,7.20
2010,06,26,05,42,7.20
2010,06,26,05,43,7.20
2010,06,26,05,44,7.20
2010,06,26,05,45,7.20
2010,06,26,05,46,7.20
2010,06,26,05,47,7.20
2010,06,26,05,48,7.30
2010,06,26,05,49,7.30
2010,06,26,05,50,7.30
2010,06,26,05,51,7.30
2010,06,26,05,52,7.30
2010,06,26,05,53,7.30
2010,06,26,05,54,7.40
2010,06,26,05,55,7.40
2010,06,26,05,56,7.40
2010,06,26,05,57,7.40
2010,06,26,05,58,7.40
2010,06,26,05,59,7.40
2010,06,26,06,00,7.40
2010,06,26,06,01,7.40
2010,06,26,06,02,7.40
2010,06,26,06,03,7.40
2010,06,26,06,04,7.40
2010,06,26,06,05,7.40
2010,06,26,06,06,7.40
2010,06,26,06,07,7.40
2010,06,26,06,08,7.40
2010,06,26,06,09,7.40
2010,06,26,06,10,7.40
2010,06,26,06,11,7.40
2010,06,26,06,12,7.40
2010,06,26,06,13,7.40
2010,06,26,06,14,7.40
2010,06,26,06,15,7.40
2010,06,26,06,16,7.50
2010,06,26,06,17,7.50
2010,06,26,06,18,7.50
2010,06,26,06,19,7.50
2010,06,26,06,20,7.60
2010,06,26,06,21,7.60
2010,06,26,06,22,7.60
2010,06,26,06,23,7.70
2010,06,26,06,24,7.70
2010,06,26,06,25,7.70
2010,06,26,06,26,7.70
2010,06,26,06,27,7.80
2010,06,26,06,28,7.80
2010,06,26,06,29,7.80
2010,06,26,06,30,7.80
2010,06,26,06,31,7.80
2010,06,26,06,32,7.80
2010,06,26,06,33,7.80
2010,06,26,06,34,7.80
2010,06,26,06,35,7.80
2010,06,26,06,36,7.80
2010,06,26,06,37,7.90
2010,06,26,06,38,7.90
2010,06,26,06,39,7.90
2010,06,26,06,40,7.90
2010,06,26,06,41,7.90
2010,06,26,06,42,7.90
2010,06,26,06,43,8.00
2010,06,26,06,44,8.00
2010,06,26,06,45,8.10
2010,06,26,06,46,8.10
2010,06,26,06,47,8.10
2010,06,26,06,48,8.10
2010,06,26,06,49,8.20
2010,06,26,06,50,8.20
2010,06,26,06,51,8.20
2010,06,26,06,52,8.20
2010,06,26,06,53,8.30
2010,06,26,06,54,8.30
2010,06,26,06,55,8.30
2010,06,26,06,56,8.40
2010,06,26,06,57,8.40
2010,06,26,06,58,8.40
2010,06,26,06,59,8.50
2010,06,26,07,00,8.50
2010,06,26,07,01,8.60
2010,06,26,07,02,8.60
2010,06,26,07,03,8.60
2010,06,26,07,04,8.70
2010,06,26,07,05,8.70
2010,06,26,07,06,8.70
2010,06,26,07,07,8.70
2010,06,26,07,08,8.70
2010,06,26,07,09,8.80
2010,06,26,07,10,8.80
2010,06,26,07,11,8.80
2010,06,26,07,12,8.80
2010,06,26,07,13,8.90
2010,06,26,07,14,8.90
2010,06,26,07,15,8.90
2010,06,26,07,16,9.00
2010,06,26,07,17,9.00
2010,06,26,07,18,9.10
2010,06,26,07,19,9.10
2010,06,26,07,20,9.20
2010,06,26,07,21,9.20
2010,06,26,07,22,9.30
2010,06,26,07,23,9.30
2010,06,26,07,24,9.40
2010,06,26,07,25,9.50
2010,06,26,07,26,9.60
2010,06,26,07,27,9.60
2010,06,26,07,28,9.60
2010,06,26,07,29,9.70
2010,06,26,07,30,9.70
2010,06,26,07,31,9.80
2010,06,26,07,32,9.80
2010,06,26,07,33,9.90
2010,06,26,07,34,9.90
2010,06,26,07,35,10.00
2010,06,26,07,36,10.10
2010,06,26,07,37,10.20
2010,06,26,07,38,10.20
2010,06,26,07,39,10.30
2010,06,26,07,40,10.30
2010,06,26,07,41,10.40
2010,06,26,07,42,10.40
2010,06,26,07,43,10.50
2010,06,26,07,44,10.50
2010,06,26,07,45,10.60
2010,06,26,07,46,10.60
2010,06,26,07,47,10.70
2010,06,26,07,48,10.70
2010,06,26,07,49,10.80
2010,06,26,07,50,10.80
2010,06,26,07,51,10.80
2010,06,26,07,52,10.90
2010,06,26,07,53,10.90
2010,06,26,07,54,11.00
2010,06,26,07,55,11.00
2010,06,26,07,56,11.10
2010,06,26,07,57,11.10
2010,06,26,07,58,11.10
2010,06,26,07,59,11.20
2010,06,26,08,00,11.20
2010,06,26,08,01,11.30
2010,06,26,08,02,11.40
2010,06,26,08,03,11.50
2010,06,26,08,04,11.60
2010,06,26,08,05,11.70
2010,06,26,08,06,11.80
2010,06,26,08,07,11.90
2010,06,26,08,08,12.00
2010,06,26,08,09,12.10
2010,06,26,08,10,12.20
2010,06,26,08,11,12.30
2010,06,26,08,12,12.50
2010,06,26,08,13,12.60
2010,06,26,08,14,12.70
2010,06,26,08,15,12.80
2010,06,26,08,16,12.90
2010,06,26,08,17,13.00
2010,06,26,08,18,13.10
2010,06,26,08,19,13.20
2010,06,26,08,20,13.30
2010,06,26,08,21,13.40
2010,06,26,08,22,13.50
2010,06,26,08,23,13.60
2010,06,26,08,24,13.70
2010,06,26,08,25,13.80
2010,06,26,08,26,13.80
2010,06,26,08,27,13.80
2010,06,26,08,28,13.80
2010,06,26,08,29,13.80
2010,06,26,08,30,13.70
2010,06,26,08,31,13.60
2010,06,26,08,32,13.60
2010,06,26,08,33,13.50
2010,06,26,08,34,13.50
2010,06,26,08,35,13.50
2010,06,26,08,36,13.60
2010,06,26,08,37,13.70
2010,06,26,08,38,13.70
2010,06,26,08,39,13.80
2010,06,26,08,40,13.90
2010,06,26,08,41,14.00
2010,06,26,08,42,14.10
2010,06,26,08,43,14.10
2010,06,26,08,44,14.20
2010,06,26,08,45,14.20
2010,06,26,08,46,14.20
2010,06,26,08,47,14.30
2010,06,26,08,48,14.30
2010,06,26,08,49,14.40
2010,06,26,08,50,14.40
2010,06,26,08,51,14.40
2010,06,26,08,52,14.40
2010,06,26,08,53,14.40
2010,06,26,08,54,14.50
2010,06,26,08,55,14.60
2010,06,26,08,56,14.60
2010,06,26,08,57,14.70
2010,06,26,08,58,14.70
2010,06,26,08,59,14.70
2010,06,26,09,00,14.80
2010,06,26,09,01,14.80
2010,06,26,09,02,14.90
2010,06,26,09,03,14.90
2010,06,26,09,04,15.00
2010,06,26,09,05,15.00
2010,06,26,09,06,15.00
2010,06,26,09,07,15.00
2010,06,26,09,08,15.00
2010,06,26,09,09,15.00
2010,06,26,09,10,15.00
2010,06,26,09,11,15.00
2010,06,26,09,12,15.00
2010,06,26,09,13,15.00
2010,06,26,09,14,15.00
2010,06,26,09,15,15.00
2010,06,26,09,16,15.00
2010,06,26,09,17,15.00
2010,06,26,09,18,15.00
2010,06,26,09,19,15.00
2010,06,26,09,20,15.00
2010,06,26,09,21,15.00
2010,06,26,09,22,15.00
2010,06,26,09,23,15.00
2010,06,26,09,24,15.00
2010,06,26,09,25,15.00
2010,06,26,09,26,15.00
2010,06,26,09,27,15.00
2010,06,26,09,28,15.00
2010,06,26,09,29,14.90
2010,06,26,09,30,14.80
2010,06,26,09,31,14.70
2010,06,26,09,32,14.70
2010,06,26,09,33,14.70
2010,06,26,09,34,14.70
2010,06,26,09,35,14.70
2010,06,26,09,36,14.70
2010,06,26,09,37,14.70
2010,06,26,09,38,14.80
2010,06,26,09,39,14.80
2010,06,26,09,40,14.80
2010,06,26,09,41,14.80
2010,06,26,09,42,14.80
2010,06,26,09,43,14.90
2010,06,26,09,44,14.90
2010,06,26,09,45,15.00
2010,06,26,09,46,15.00
2010,06,26,09,47,15.00
2010,06,26,09,48,15.00
2010,06,26,09,49,15.10
2010,06,26,09,50,15.20
2010,06,26,09,51,15.20
2010,06,26,09,52,15.20
2010,06,26,09,53,15.20
2010,06,26,09,54,15.20
2010,06,26,09,55,15.10
2010,06,26,09,56,15.10
2010,06,26,09,57,15.00
2010,06,26,09,58,15.00
2010,06,26,09,59,15.00
2010,06,26,10,00,15.00
2010,06,26,10,01,15.00
2010,06,26,10,02,15.00
2010,06,26,10,03,15.00
2010,06,26,10,04,15.00
2010,06,26,10,05,15.10
2010,06,26,10,06,15.20
2010,06,26,10,07,15.20
2010,06,26,10,08,15.20
2010,06,26,10,09,15.30
2010,06,26,10,10,15.30
2010,06,26,10,11,15.30
2010,06,26,10,12,15.40
2010,06,26,10,13,15.40
2010,06,26,10,14,15.40
2010,06,26,10,15,15.50
2010,06,26,10,16,15.50
2010,06,26,10,17,15.60
2010,06,26,10,18,15.60
2010,06,26,10,19,15.60
2010,06,26,10,20,15.60
2010,06,26,10,21,15.60
2010,06,26,10,22,15.60
2010,06,26,10,23,15.60
2010,06,26,10,24,15.60
2010,06,26,10,25,15.60
2010,06,26,10,26,15.60
2010,06,26,10,27,15.50
2010,06,26,10,28,15.50
2010,06,26,10,29,15.40
2010,06,26,10,30,15.40
2010,06,26,10,31,15.40
2010,06,26,10,32,15.30
2010,06,26,10,33,15.30
2010,06,26,10,34,15.30
2010,06,26,10,35,15.30
2010,06,26,10,36,15.30
2010,06,26,10,37,15.30
2010,06,26,10,38,15.20
2010,06,26,10,39,15.20
2010,06,26,10,40,15.10
2010,06,26,10,41,15.20
2010,06,26,10,42,15.20
2010,06,26,10,43,15.10
2010,06,26,10,44,15.20
2010,06,26,10,45,15.20
2010,06,26,10,46,15.30
2010,06,26,10,47,15.40
2010,06,26,10,48,15.50
2010,06,26,10,49,15.60
2010,06,26,10,50,15.70
2010,06,26,10,51,15.80
2010,06,26,10,52,15.80
2010,06,26,10,53,15.80
2010,06,26,10,54,15.80
2010,06,26,10,55,15.90
2010,06,26,10,56,15.90
2010,06,26,10,57,15.90
2010,06,26,10,58,15.90
2010,06,26,10,59,15.90
2010,06,26,11,00,15.90
2010,06,26,11,01,15.90
2010,06,26,11,02,15.90
2010,06,26,11,03,15.90
2010,06,26,11,04,15.90
2010,06,26,11,05,16.00
2010,06,26,11,06,16.00
2010,06,26,11,07,16.00
2010,06,26,11,08,16.10
2010,06,26,11,09,16.10
2010,06,26,11,10,16.10
2010,06,26,11,11,16.20
2010,06,26,11,12,16.30
2010,06,26,11,13,16.30
2010,06,26,11,14,16.40
2010,06,26,11,15,16.50
2010,06,26,11,16,16.50
2010,06,26,11,17,16.60
2010,06,26,11,18,16.70
2010,06,26,11,19,16.70
2010,06,26,11,20,16.80
2010,06,26,11,21,16.80
2010,06,26,11,22,16.90
2010,06,26,11,23,17.00
2010,06,26,11,24,17.00
2010,06,26,11,25,17.10
2010,06,26,11,26,17.10
2010,06,26,11,27,17.10
2010,06,26,11,28,17.10
2010,06,26,11,29,17.10
2010,06,26,11,30,17.10
2010,06,26,11,31,17.20
2010,06,26,11,32,17.20
2010,06,26,11,33,17.30
2010,06,26,11,34,17.30
2010,06,26,11,35,17.40
2010,06,26,11,36,17.40
2010,06,26,11,37,17.40
2010,06,26,11,38,17.40
2010,06,26,11,39,17.40
2010,06,26,11,40,17.30
2010,06,26,11,41,17.20
2010,06,26,11,42,17.10
2010,06,26,11,43,17.00
2010,06,26,11,44,17.00
2010,06,26,11,45,17.00
2010,06,26,11,46,17.10
2010,06,26,11,47,17.10
2010,06,26,11,48,17.10
2010,06,26,11,49,17.10
2010,06,26,11,50,17.00
2010,06,26,11,51,17.00
2010,06,26,11,52,16.90
2010,06,26,11,53,16.90
2010,06,26,11,54,16.90
2010,06,26,11,55,16.80
2010,06,26,11,56,16.80
2010,06,26,11,57,16.70
2010,06,26,11,58,16.60
2010,06,26,11,59,16.50
2010,06,26,12,00,16.50
2010,06,26,12,01,16.50
2010,06,26,12,02,16.60
2010,06,26,12,03,16.60
2010,06,26,12,04,16.70
2010,06,26,12,05,16.70
2010,06,26,12,06,16.80
2010,06,26,12,07,16.80
2010,06,26,12,08,16.90
2010,06,26,12,09,17.00
2010,06,26,12,10,17.10
2010,06,26,12,11,17.20
2010,06,26,12,12,17.30
2010,06,26,12,13,17.40
2010,06,26,12,14,17.50
2010,06,26,12,15,17.70
2010,06,26,12,16,17.80
2010,06,26,12,17,17.90
2010,06,26,12,18,18.00
2010,06,26,12,19,18.20
2010,06,26,12,20,18.30
2010,06,26,12,21,18.50
2010,06,26,12,22,18.60
2010,06,26,12,23,18.70
2010,06,26,12,24,18.70
2010,06,26,12,25,18.70
2010,06,26,12,26,18.70
2010,06,26,12,27,18.70
2010,06,26,12,28,18.70
2010,06,26,12,29,18.60
2010,06,26,12,30,18.60
2010,06,26,12,31,18.60
2010,06,26,12,32,18.60
2010,06,26,12,33,18.60
2010,06,26,12,34,18.70
2010,06,26,12,35,18.80
2010,06,26,12,36,18.80
2010,06,26,12,37,18.80
2010,06,26,12,38,18.80
2010,06,26,12,39,18.80
2010,06,26,12,40,18.70
2010,06,26,12,41,18.70
2010,06,26,12,42,18.70
2010,06,26,12,43,18.80
2010,06,26,12,44,18.80
2010,06,26,12,45,18.80
2010,06,26,12,46,18.80
2010,06,26,12,47,18.80
2010,06,26,12,48,18.80
2010,06,26,12,49,18.90
2010,06,26,12,50,19.00
2010,06,26,12,51,19.10
2010,06,26,12,52,19.20
2010,06,26,12,53,19.30
2010,06,26,12,54,19.30
2010,06,26,12,55,19.30
2010,06,26,12,56,19.20
2010,06,26,12,57,19.10
2010,06,26,12,58,18.90
2010,06,26,12,59,18.80
2010,06,26,13,00,18.70
2010,06,26,13,01,18.70
2010,06,26,13,02,18.80
2010,06,26,13,03,18.80
2010,06,26,13,04,18.80
2010,06,26,13,05,18.80
2010,06,26,13,06,18.80
2010,06,26,13,07,18.70
2010,06,26,13,08,18.70
2010,06,26,13,09,18.60
2010,06,26,13,10,18.60
2010,06,26,13,11,18.50
2010,06,26,13,12,18.50
2010,06,26,13,13,18.50
2010,06,26,13,14,18.50
2010,06,26,13,15,18.50
2010,06,26,13,16,18.50
2010,06,26,13,17,18.60
2010,06,26,13,18,18.60
2010,06,26,13,19,18.60
2010,06,26,13,20,18.60
2010,06,26,13,21,18.70
2010,06,26,13,22,18.80
2010,06,26,13,23,18.80
2010,06,26,13,24,18.80
2010,06,26,13,25,18.80
2010,06,26,13,26,18.90
2010,06,26,13,27,18.90
2010,06,26,13,28,19.00
2010,06,26,13,29,19.00
2010,06,26,13,30,19.00
2010,06,26,13,31,19.10
2010,06,26,13,32,19.00
2010,06,26,13,33,18.90
2010,06,26,13,34,18.90
2010,06,26,13,35,18.80
2010,06,26,13,36,18.80
2010,06,26,13,37,18.80
2010,06,26,13,38,18.80
2010,06,26,13,39,18.80
2010,06,26,13,40,18.80
2010,06,26,13,41,18.80
2010,06,26,13,42,18.80
2010,06,26,13,43,18.90
2010,06,26,13,44,18.90
2010,06,26,13,45,19.00
2010,06,26,13,46,19.00
2010,06,26,13,47,18.90
2010,06,26,13,48,18.90
2010,06,26,13,49,18.90
2010,06,26,13,50,18.90
2010,06,26,13,51,19.00
2010,06,26,13,52,19.10
2010,06,26,13,53,19.20
2010,06,26,13,54,19.20
2010,06,26,13,55,19.20
2010,06,26,13,56,19.20
2010,06,26,13,57,19.20
2010,06,26,13,58,19.30
2010,06,26,13,59,19.30
2010,06,26,14,00,19.40
2010,06,26,14,01,19.40
2010,06,26,14,02,19.40
2010,06,26,14,03,19.50
2010,06,26,14,04,19.60
2010,06,26,14,05,19.60
2010,06,26,14,06,19.70
2010,06,26,14,07,19.70
2010,06,26,14,08,19.80
2010,06,26,14,09,19.80
2010,06,26,14,10,19.80
2010,06,26,14,11,19.80
2010,06,26,14,12,19.80
2010,06,26,14,13,19.90
2010,06,26,14,14,19.90
2010,06,26,14,15,19.90
2010,06,26,14,16,19.80
2010,06,26,14,17,19.70
2010,06,26,14,18,19.70
2010,06,26,14,19,19.80
2010,06,26,14,20,19.90
2010,06,26,14,21,19.90
2010,06,26,14,22,19.90
2010,06,26,14,23,19.90
2010,06,26,14,24,19.90
2010,06,26,14,25,19.90
2010,06,26,14,26,19.90
2010,06,26,14,27,20.00
2010,06,26,14,28,20.00
2010,06,26,14,29,20.00
2010,06,26,14,30,20.00
2010,06,26,14,31,20.00
2010,06,26,14,32,20.00
2010,06,26,14,33,19.80
2010,06,26,14,34,19.70
2010,06,26,14,35,19.60
2010,06,26,14,36,19.50
2010,06,26,14,37,19.50
2010,06,26,14,38,19.40
2010,06,26,14,39,19.40
2010,06,26,14,40,19.40
2010,06,26,14,41,19.40
2010,06,26,14,42,19.30
2010,06,26,14,43,19.30
2010,06,26,14,44,19.40
2010,06,26,14,45,19.40
2010,06,26,14,46,19.50
2010,06,26,14,47,19.60
2010,06,26,14,48,19.70
2010,06,26,14,49,19.70
2010,06,26,14,50,19.80
2010,06,26,14,51,19.80
2010,06,26,14,52,19.70
2010,06,26,14,53,19.60
2010,06,26,14,54,19.60
2010,06,26,14,55,19.50
2010,06,26,14,56,19.50
2010,06,26,14,57,19.40
2010,06,26,14,58,19.40
2010,06,26,14,59,19.40
2010,06,26,15,00,19.50
2010,06,26,15,01,19.50
2010,06,26,15,02,19.50
2010,06,26,15,03,19.60
2010,06,26,15,04,19.70
2010,06,26,15,05,19.70
2010,06,26,15,06,19.70
2010,06,26,15,07,19.70
2010,06,26,15,08,19.70
2010,06,26,15,09,19.70
2010,06,26,15,10,19.60
2010,06,26,15,11,19.60
2010,06,26,15,12,19.60
2010,06,26,15,13,19.60
2010,06,26,15,14,19.70
2010,06,26,15,15,19.70
2010,06,26,15,16,19.70
2010,06,26,15,17,19.70
2010,06,26,15,18,19.70
2010,06,26,15,19,19.70
2010,06,26,15,20,19.80
2010,06,26,15,21,19.70
2010,06,26,15,22,19.70
2010,06,26,15,23,19.60
2010,06,26,15,24,19.60
2010,06,26,15,25,19.50
2010,06,26,15,26,19.50
2010,06,26,15,27,19.60
2010,06,26,15,28,19.50
2010,06,26,15,29,19.40
2010,06,26,15,30,19.30
2010,06,26,15,31,19.20
2010,06,26,15,32,19.10
2010,06,26,15,33,18.90
2010,06,26,15,34,18.80
2010,06,26,15,35,18.80
2010,06,26,15,36,18.70
2010,06,26,15,37,18.70
2010,06,26,15,38,18.70
2010,06,26,15,39,18.80
2010,06,26,15,40,18.80
2010,06,26,15,41,18.70
2010,06,26,15,42,18.70
2010,06,26,15,43,18.60
2010,06,26,15,44,18.50
2010,06,26,15,45,18.40
2010,06,26,15,46,18.30
2010,06,26,15,47,18.20
2010,06,26,15,48,18.10
2010,06,26,15,49,18.00
2010,06,26,15,50,17.90
2010,06,26,15,51,17.80
2010,06,26,15,52,17.80
2010,06,26,15,53,17.80
2010,06,26,15,54,17.70
2010,06,26,15,55,17.70
2010,06,26,15,56,17.70
2010,06,26,15,57,17.70
2010,06,26,15,58,17.60
2010,06,26,15,59,17.60
2010,06,26,16,00,17.60
2010,06,26,16,01,17.50
2010,06,26,16,02,17.50
2010,06,26,16,03,17.40
2010,06,26,16,04,17.40
2010,06,26,16,05,17.40
2010,06,26,16,06,17.40
2010,06,26,16,07,17.40
2010,06,26,16,08,17.40
2010,06,26,16,09,17.40
2010,06,26,16,10,17.30
2010,06,26,16,11,17.30
2010,06,26,16,12,17.30
2010,06,26,16,13,17.20
2010,06,26,16,14,17.20
2010,06,26,16,15,17.10
2010,06,26,16,16,17.00
2010,06,26,16,17,17.00
2010,06,26,16,18,16.90
2010,06,26,16,19,16.80
2010,06,26,16,20,16.80
2010,06,26,16,21,16.60
2010,06,26,16,22,16.50
2010,06,26,16,23,16.40
2010,06,26,16,24,16.30
2010,06,26,16,25,16.10
2010,06,26,16,26,16.00
2010,06,26,16,27,15.90
2010,06,26,16,28,15.70
2010,06,26,16,29,15.60
2010,06,26,16,30,15.60
2010,06,26,16,31,15.50
2010,06,26,16,32,15.40
2010,06,26,16,33,15.30
2010,06,26,16,34,15.10
2010,06,26,16,35,15.00
2010,06,26,16,36,15.00
2010,06,26,16,37,15.00
2010,06,26,16,38,14.90
2010,06,26,16,39,14.90
2010,06,26,16,40,14.80
2010,06,26,16,41,14.70
2010,06,26,16,42,14.70
2010,06,26,16,43,14.60
2010,06,26,16,44,14.60
2010,06,26,16,45,14.60
2010,06,26,16,46,14.60
2010,06,26,16,47,14.70
2010,06,26,16,48,14.70
2010,06,26,16,49,14.80
2010,06,26,16,50,14.80
2010,06,26,16,51,14.90
2010,06,26,16,52,14.90
2010,06,26,16,53,15.00
2010,06,26,16,54,15.00
2010,06,26,16,55,15.00
2010,06,26,16,56,15.00
2010,06,26,16,57,15.00
2010,06,26,16,58,15.00
2010,06,26,16,59,15.00
2010,06,26,17,00,15.00
2010,06,26,17,01,15.00
2010,06,26,17,02,15.00
2010,06,26,17,03,15.00
2010,06,26,17,04,15.00
2010,06,26,17,05,15.00
2010,06,26,17,06,15.00
2010,06,26,17,07,15.00
2010,06,26,17,08,15.00
2010,06,26,17,09,15.00
2010,06,26,17,10,15.00
2010,06,26,17,11,15.00
2010,06,26,17,12,15.00
2010,06,26,17,13,15.00
2010,06,26,17,14,15.10
2010,06,26,17,15,15.10
2010,06,26,17,16,15.20
2010,06,26,17,17,15.30
2010,06,26,17,18,15.30
2010,06,26,17,19,15.30
2010,06,26,17,20,15.40
2010,06,26,17,21,15.40
2010,06,26,17,22,15.40
2010,06,26,17,23,15.40
2010,06,26,17,24,15.40
2010,06,26,17,25,15.40
2010,06,26,17,26,15.40
2010,06,26,17,27,15.40
2010,06,26,17,28,15.50
2010,06,26,17,29,15.50
2010,06,26,17,30,15.50
2010,06,26,17,31,15.60
2010,06,26,17,32,15.60
2010,06,26,17,33,15.60
2010,06,26,17,34,15.50
2010,06,26,17,35,15.50
2010,06,26,17,36,15.50
2010,06,26,17,37,15.50
2010,06,26,17,38,15.50
2010,06,26,17,39,15.40